Regional Weather Roundup
Issued by NWS

Home | Current Version | Previous Version | Graphics & Text | Print | Product List | Glossary On
Versions: 1 2 3 4 5 6 7 8 9 10 11 12 13 14 15 16 17 18 19 20 21 22 23 24 25 26 27
000
ASUS45 KBOI 240610
RWRID

IDAHO REGIONAL WEATHER ROUNDUP
NATIONAL WEATHER SERVICE BOISE ID
1100 PM MST FRI FEB 23 2018

NOTE: "FAIR" INDICATES FEW OR NO CLOUDS BELOW 12000 FEET
WITH NO SIGNIFICANT WEATHER AND/OR OBSTRUCTIONS TO VISIBILITY

IDZ012-014-240700-
SOUTHWEST IDAHO


CITY           SKY/WX    TMP DP  RH WIND       PRES   REMARKS
BOISE          CLOUDY    24  14  65 SE5       30.22F WCI  18
CALDWELL       MOCLDY    30  13  49 S3        30.24F
MOUNTAIN HOME  CLOUDY    21  18  86 CALM      30.22F
$$

IDZ016-017-240700-
SOUTHCENTRAL IDAHO


CITY           SKY/WX    TMP DP  RH WIND       PRES   REMARKS
BURLEY         MOCLDY    17   8  67 SW14      30.15F WCI   3
JEROME         CLOUDY    21  11  65 SW9       30.17F WCI  11
TWIN FALLS     CLOUDY    17   9  70 S12       30.17F WCI   4
$$

IDZ019>023-240700-
SOUTHEAST IDAHO


CITY           SKY/WX    TMP DP  RH WIND       PRES   REMARKS
IDAHO FALLS    CLEAR     16   9  74 SW18      30.07S WCI   0
POCATELLO      PTCLDY    19   8  62 SW18      30.12S WCI   4
REXBURG        MOCLDY    16  10  77 S15       30.05R WCI   1
$$

IDZ006-010-011-018-031-032-240700-
CENTRAL IDAHO MOUNTAINS


CITY           SKY/WX    TMP DP  RH WIND       PRES   REMARKS
MCCALL         FLURRIES  14  10  84 CALM      30.07F
STANLEY          N/A     13   5  70 NE3       30.00F
SALMON         CLOUDY    19  12  74 NW5       30.04F WCI  12
CHALLIS        CLOUDY    22   3  44 SW6       30.00F WCI  14
$$

IDZ002-004-006-007-026-240700-
NORTHERN IDAHO


CITY           SKY/WX    TMP DP  RH WIND       PRES   REMARKS
LEWISTON       CLOUDY    28  24  85 NE6       30.18F WCI  22
LOWELL           N/A     27  24  89 CALM      30.23F
COEUR D`ALENE  LGT SNOW  22  19  89 S9        30.10F FOG     WCI  12
MULLAN PASS    LGT SNOW   7   4  87 SW8G20    29.85F FOG     WCI  -6
$$




USA.gov is the U.S. government's official web portal to all federal, state and local government web resources and services.